[Date Prev][Date Next][Thread Prev][Thread Next] - [Date Index][Thread Index][Author Index]

2 Line ISS Keps 6-3



ISS
1 25544U 98067A   01154.16227405  .00034246  00000-0  40058-3 0   336
2 25544  51.5703 159.4805 0017417 115.4217  10.1954 15.61056333144884

----
Via the sarex mailing list at AMSAT.ORG courtesy of AMSAT-NA.
To unsubscribe, send "unsubscribe sarex" to Majordomo@amsat.org



AMSAT Top AMSAT Home